Time,TemperatureF,DewpointF,PressureIn,WindDirection,WindDirectionDegrees,WindSpeedMPH,WindSpeedGustMPH,Humidity,HourlyPrecipIn,Conditions,Clouds,dailyrainin,SoftwareType,DateUTC
2013-02-22 00:07:00,21.5,15.0,30.24,NW,309,1.0,6.0,77,0.00,,,0.00,weatherlink.com 1.10,2013-02-22 05:07:00,
2013-02-22 00:22:00,21.6,16.0,30.27,NW,325,3.0,6.0,78,0.00,,,0.00,weatherlink.com 1.10,2013-02-22 05:22:00,
2013-02-22 00:37:00,21.7,16.0,30.28,West,275,2.0,6.0,78,0.00,,,0.00,weatherlink.com 1.10,2013-02-22 05:37:00,
2013-02-22 00:52:00,21.9,16.0,30.28,NNW,339,3.0,6.0,79,0.00,,,0.00,weatherlink.com 1.10,2013-02-22 05:52:00,
2013-02-22 01:07:00,22.1,17.0,30.28,NNW,336,0.0,6.0,79,0.00,,,0.00,weatherlink.com 1.10,2013-02-22 06:07:00,
2013-02-22 01:22:00,22.4,17.0,30.29,NW,304,1.0,7.0,79,0.00,,,0.00,weatherlink.com 1.10,2013-02-22 06:22:00,
2013-02-22 01:37:00,22.5,17.0,30.28,WNW,297,2.0,4.0,79,0.00,,,0.00,weatherlink.com 1.10,2013-02-22 06:37:00,
2013-02-22 01:52:00,22.5,17.0,30.29,NW,304,2.0,6.0,79,0.00,,,0.00,weatherlink.com 1.10,2013-02-22 06:52:00,
2013-02-22 02:07:00,22.4,17.0,30.28,NNW,331,2.0,5.0,79,0.00,,,0.00,weatherlink.com 1.10,2013-02-22 07:07:00,
2013-02-22 02:22:00,22.3,17.0,30.29,NW,309,0.0,4.0,79,0.00,,,0.00,weatherlink.com 1.10,2013-02-22 07:22:00,
2013-02-22 02:37:00,22.0,17.0,30.29,NW,312,2.0,4.0,80,0.00,,,0.00,weatherlink.com 1.10,2013-02-22 07:37:00,
2013-02-22 02:52:00,22.1,17.0,30.29,West,276,0.0,4.0,80,0.00,,,0.00,weatherlink.com 1.10,2013-02-22 07:52:00,
2013-02-22 03:07:00,22.0,17.0,30.29,NNW,339,1.0,5.0,80,0.00,,,0.00,weatherlink.com 1.10,2013-02-22 08:07:00,
2013-02-22 03:22:00,22.0,17.0,30.30,North,354,2.0,5.0,81,0.00,,,0.00,weatherlink.com 1.10,2013-02-22 08:22:00,
2013-02-22 03:37:00,22.2,17.0,30.30,NW,316,0.0,4.0,81,0.00,,,0.00,weatherlink.com 1.10,2013-02-22 08:37:00,
2013-02-22 03:53:00,21.9,17.0,30.31,NNW,333,0.0,2.0,81,0.00,,,0.00,weatherlink.com 1.10,2013-02-22 08:53:00,
2013-02-22 04:08:00,21.6,17.0,30.31,NNW,341,0.0,2.0,81,0.00,,,0.00,weatherlink.com 1.10,2013-02-22 09:08:00,
2013-02-22 04:23:00,21.5,17.0,30.31,NNW,329,0.0,3.0,82,0.00,,,0.00,weatherlink.com 1.10,2013-02-22 09:23:00,
2013-02-22 04:38:00,21.5,17.0,30.31,NNE,23,0.0,3.0,83,0.00,,,0.00,weatherlink.com 1.10,2013-02-22 09:38:00,
2013-02-22 04:53:00,21.9,17.0,30.32,NW,321,1.0,3.0,82,0.00,,,0.00,weatherlink.com 1.10,2013-02-22 09:53:00,
2013-02-22 05:08:00,21.5,17.0,30.31,NNE,22,0.0,1.0,82,0.00,,,0.00,weatherlink.com 1.10,2013-02-22 10:08:00,
2013-02-22 05:23:00,20.7,16.0,30.32,NNE,23,0.0,1.0,83,0.00,,,0.00,weatherlink.com 1.10,2013-02-22 10:23:00,
2013-02-22 05:38:00,19.9,16.0,30.34,WNW,293,0.0,1.0,84,0.00,,,0.00,weatherlink.com 1.10,2013-02-22 10:38:00,
2013-02-22 05:53:00,18.4,15.0,30.35,WNW,294,0.0,1.0,85,0.00,,,0.00,weatherlink.com 1.10,2013-02-22 10:53:00,
2013-02-22 06:08:00,18.3,15.0,30.36,NE,48,0.0,1.0,87,0.00,,,0.00,weatherlink.com 1.10,2013-02-22 11:08:00,
2013-02-22 06:23:00,17.7,15.0,30.38,West,263,1.0,1.0,87,0.00,,,0.00,weatherlink.com 1.10,2013-02-22 11:23:00,
2013-02-22 06:38:00,19.1,16.0,30.39,North,8,0.0,4.0,88,0.00,,,0.00,weatherlink.com 1.10,2013-02-22 11:38:00,
2013-02-22 06:53:00,20.2,17.0,30.39,North,11,1.0,3.0,87,0.00,,,0.00,weatherlink.com 1.10,2013-02-22 11:53:00,
2013-02-22 07:08:00,20.5,17.0,30.40,NNW,338,0.0,1.0,85,0.00,,,0.00,weatherlink.com 1.10,2013-02-22 12:08:00,
2013-02-22 07:23:00,20.8,17.0,30.41,North,349,0.0,1.0,84,0.00,,,0.00,weatherlink.com 1.10,2013-02-22 12:23:00,
2013-02-22 07:38:00,21.4,18.0,30.41,NNW,338,0.0,2.0,85,0.00,,,0.00,weatherlink.com 1.10,2013-02-22 12:38:00,
2013-02-22 07:53:00,23.6,19.0,30.41,NW,319,2.0,4.0,81,0.00,,,0.00,weatherlink.com 1.10,2013-02-22 12:53:00,
2013-02-22 08:08:00,25.1,19.0,30.42,NNW,336,0.0,3.0,77,0.00,,,0.00,weatherlink.com 1.10,2013-02-22 13:08:00,
2013-02-22 08:23:00,26.7,19.0,30.41,North,354,1.0,4.0,74,0.00,,,0.00,weatherlink.com 1.10,2013-02-22 13:23:00,
2013-02-22 08:38:00,27.3,20.0,30.41,WNW,297,1.0,1.0,73,0.00,,,0.00,weatherlink.com 1.10,2013-02-22 13:38:00,
2013-02-22 08:53:00,28.1,20.0,30.41,NE,39,1.0,5.0,71,0.00,,,0.00,weatherlink.com 1.10,2013-02-22 13:53:00,
2013-02-22 09:08:00,29.0,20.0,30.41,NNE,18,4.0,6.0,69,0.00,,,0.00,weatherlink.com 1.10,2013-02-22 14:08:00,
2013-02-22 09:23:00,30.6,20.0,30.41,NNE,28,0.0,3.0,66,0.00,,,0.00,weatherlink.com 1.10,2013-02-22 14:23:00,
2013-02-22 09:39:00,32.1,20.0,30.41,NE,55,0.0,3.0,61,0.00,,,0.00,weatherlink.com 1.10,2013-02-22 14:39:00,
2013-02-22 09:54:00,33.2,20.0,30.41,North,3,4.0,5.0,58,0.00,,,0.00,weatherlink.com 1.10,2013-02-22 14:54:00,
2013-02-22 10:09:00,33.6,20.0,30.40,NNW,347,2.0,7.0,57,0.00,,,0.00,weatherlink.com 1.10,2013-02-22 15:09:00,
2013-02-22 10:24:00,35.2,20.0,30.41,NW,316,3.0,4.0,54,0.00,,,0.00,weatherlink.com 1.10,2013-02-22 15:24:00,
2013-02-22 10:39:00,35.3,20.0,30.41,NNE,25,0.0,6.0,54,0.00,,,0.00,weatherlink.com 1.10,2013-02-22 15:39:00,
2013-02-22 10:54:00,36.4,21.0,30.40,WSW,240,1.0,4.0,53,0.00,,,0.00,weatherlink.com 1.10,2013-02-22 15:54:00,
2013-02-22 11:09:00,37.0,20.0,30.39,NE,56,0.0,3.0,51,0.00,,,0.00,weatherlink.com 1.10,2013-02-22 16:09:00,
2013-02-22 11:24:00,37.2,19.0,30.39,NNW,338,1.0,5.0,49,0.00,,,0.00,weatherlink.com 1.10,2013-02-22 16:24:00,
2013-02-22 11:39:00,37.3,20.0,30.38,SW,231,1.0,4.0,49,0.00,,,0.00,weatherlink.com 1.10,2013-02-22 16:39:00,
2013-02-22 11:54:00,38.7,20.0,30.38,WSW,257,0.0,4.0,47,0.00,,,0.00,weatherlink.com 1.10,2013-02-22 16:54:00,
2013-02-22 12:09:00,38.2,20.0,30.37,SSE,165,0.0,5.0,48,0.00,,,0.00,weatherlink.com 1.10,2013-02-22 17:09:00,
2013-02-22 12:24:00,38.7,19.0,30.37,WNW,291,2.0,4.0,46,0.00,,,0.00,weatherlink.com 1.10,2013-02-22 17:24:00,
2013-02-22 12:39:00,38.5,19.0,30.36,NNW,338,2.0,6.0,46,0.00,,,0.00,weatherlink.com 1.10,2013-02-22 17:39:00,
2013-02-22 12:54:00,39.3,19.0,30.36,North,357,2.0,4.0,45,0.00,,,0.00,weatherlink.com 1.10,2013-02-22 17:54:00,
2013-02-22 13:09:00,38.3,19.0,30.36,NW,307,2.0,3.0,46,0.00,,,0.00,weatherlink.com 1.10,2013-02-22 18:09:00,
2013-02-22 13:24:00,39.3,19.0,30.36,NNW,342,0.0,2.0,44,0.00,,,0.00,weatherlink.com 1.10,2013-02-22 18:24:00,
2013-02-22 13:39:00,39.5,20.0,30.36,NNW,342,1.0,3.0,46,0.00,,,0.00,weatherlink.com 1.10,2013-02-22 18:39:00,
2013-02-22 13:54:00,38.9,18.0,30.35,West,263,4.0,4.0,43,0.00,,,0.00,weatherlink.com 1.10,2013-02-22 18:54:00,
2013-02-22 14:09:00,40.1,19.0,30.35,NNW,346,1.0,3.0,42,0.00,,,0.00,weatherlink.com 1.10,2013-02-22 19:09:00,
2013-02-22 14:24:00,38.0,17.0,30.34,NNW,336,1.0,8.0,42,0.00,,,0.00,weatherlink.com 1.10,2013-02-22 19:24:00,
2013-02-22 14:39:00,39.2,17.0,30.35,East,100,0.0,2.0,41,0.00,,,0.00,weatherlink.com 1.10,2013-02-22 19:39:00,
2013-02-22 14:54:00,39.1,19.0,30.35,West,278,0.0,3.0,44,0.00,,,0.00,weatherlink.com 1.10,2013-02-22 19:54:00,
2013-02-22 15:09:00,40.1,19.0,30.35,NNW,338,0.0,2.0,43,0.00,,,0.00,weatherlink.com 1.10,2013-02-22 20:09:00,
2013-02-22 15:24:00,39.9,17.0,30.35,East,82,1.0,2.0,40,0.00,,,0.00,weatherlink.com 1.10,2013-02-22 20:24:00,
2013-02-22 15:39:00,39.1,18.0,30.35,WSW,252,1.0,3.0,42,0.00,,,0.00,weatherlink.com 1.10,2013-02-22 20:39:00,
2013-02-22 15:54:00,38.3,18.0,30.34,WSW,254,0.0,2.0,44,0.00,,,0.00,weatherlink.com 1.10,2013-02-22 20:54:00,
2013-02-22 16:09:00,37.3,18.0,30.33,SSW,195,2.0,3.0,45,0.00,,,0.00,weatherlink.com 1.10,2013-02-22 21:09:00,
2013-02-22 16:24:00,37.1,19.0,30.34,SW,235,1.0,3.0,49,0.00,,,0.00,weatherlink.com 1.10,2013-02-22 21:24:00,
2013-02-22 16:39:00,36.9,19.0,30.33,South,170,2.0,2.0,48,0.00,,,0.00,weatherlink.com 1.10,2013-02-22 21:39:00,
2013-02-22 16:54:00,36.4,18.0,30.33,SW,227,0.0,2.0,48,0.00,,,0.00,weatherlink.com 1.10,2013-02-22 21:54:00,
2013-02-22 17:09:00,35.6,20.0,30.33,SSE,166,0.0,0.0,54,0.00,,,0.00,weatherlink.com 1.10,2013-02-22 22:09:00,
2013-02-22 17:24:00,34.6,21.0,30.33,SSW,204,0.0,0.0,57,0.00,,,0.00,weatherlink.com 1.10,2013-02-22 22:24:00,
2013-02-22 17:39:00,33.5,19.0,30.33,SSW,204,0.0,0.0,56,0.00,,,0.00,weatherlink.com 1.10,2013-02-22 22:39:00,
2013-02-22 17:54:00,32.8,23.0,30.33,SSW,204,0.0,0.0,66,0.00,,,0.00,weatherlink.com 1.10,2013-02-22 22:54:00,
2013-02-22 18:09:00,31.9,22.0,30.34,SSW,203,0.0,0.0,66,0.00,,,0.00,weatherlink.com 1.10,2013-02-22 23:09:00,
2013-02-22 18:24:00,31.4,22.0,30.34,SSW,203,0.0,0.0,69,0.00,,,0.00,weatherlink.com 1.10,2013-02-22 23:24:00,
2013-02-22 18:39:00,31.2,23.0,30.34,SSW,203,0.0,0.0,71,0.00,,,0.00,weatherlink.com 1.10,2013-02-22 23:39:00,
2013-02-22 18:54:00,30.7,22.0,30.35,SSW,204,0.0,0.0,70,0.00,,,0.00,weatherlink.com 1.10,2013-02-22 23:54:00,
2013-02-22 19:09:00,31.2,20.0,30.35,SSW,204,0.0,1.0,64,0.00,,,0.00,weatherlink.com 1.10,2013-02-23 00:09:00,
2013-02-22 19:24:00,32.0,20.0,30.35,SW,215,1.0,6.0,61,0.00,,,0.00,weatherlink.com 1.10,2013-02-23 00:24:00,
2013-02-22 19:39:00,32.1,21.0,30.35,SSE,163,0.0,5.0,65,0.00,,,0.00,weatherlink.com 1.10,2013-02-23 00:39:00,
2013-02-22 19:54:00,31.8,21.0,30.34,SSE,157,1.0,2.0,64,0.00,,,0.00,weatherlink.com 1.10,2013-02-23 00:54:00,
2013-02-22 20:09:00,31.7,21.0,30.35,South,171,1.0,4.0,65,0.00,,,0.00,weatherlink.com 1.10,2013-02-23 01:09:00,
2013-02-22 20:24:00,31.4,22.0,30.36,ESE,110,0.0,3.0,68,0.00,,,0.00,weatherlink.com 1.10,2013-02-23 01:24:00,
2013-02-22 20:39:00,31.3,22.0,30.35,ESE,121,1.0,5.0,68,0.00,,,0.00,weatherlink.com 1.10,2013-02-23 01:39:00,
2013-02-22 20:54:00,31.2,22.0,30.36,ESE,110,1.0,3.0,68,0.00,,,0.00,weatherlink.com 1.10,2013-02-23 01:54:00,
2013-02-22 21:09:00,31.1,22.0,30.36,ESE,107,0.0,3.0,68,0.00,,,0.00,weatherlink.com 1.10,2013-02-23 02:09:00,
2013-02-22 21:24:00,30.8,22.0,30.36,South,172,0.0,2.0,69,0.00,,,0.00,weatherlink.com 1.10,2013-02-23 02:24:00,
2013-02-22 21:39:00,30.7,22.0,30.35,South,171,0.0,2.0,70,0.00,,,0.00,weatherlink.com 1.10,2013-02-23 02:39:00,
2013-02-22 21:54:00,30.6,23.0,30.34,WSW,253,0.0,3.0,72,0.00,,,0.00,weatherlink.com 1.10,2013-02-23 02:54:00,
2013-02-22 22:09:00,30.6,23.0,30.35,South,176,0.0,2.0,72,0.00,,,0.00,weatherlink.com 1.10,2013-02-23 03:09:00,
2013-02-22 22:24:00,30.5,22.0,30.35,SSE,148,1.0,4.0,72,0.00,,,0.00,weatherlink.com 1.10,2013-02-23 03:24:00,
2013-02-22 22:39:00,30.5,23.0,30.35,SSW,195,0.0,3.0,73,0.00,,,0.00,weatherlink.com 1.10,2013-02-23 03:39:00,
2013-02-22 22:54:00,30.4,23.0,30.35,SSE,163,1.0,3.0,74,0.00,,,0.00,weatherlink.com 1.10,2013-02-23 03:54:00,
2013-02-22 23:09:00,30.5,23.0,30.34,SE,135,1.0,5.0,74,0.00,,,0.00,weatherlink.com 1.10,2013-02-23 04:09:00,
2013-02-22 23:24:00,30.5,23.0,30.34,WSW,247,2.0,5.0,75,0.00,,,0.00,weatherlink.com 1.10,2013-02-23 04:24:00,
2013-02-22 23:40:00,30.4,23.0,30.35,SSE,166,0.0,5.0,74,0.00,,,0.00,weatherlink.com 1.10,2013-02-23 04:40:00,
2013-02-22 23:55:00,30.3,23.0,30.34,South,169,1.0,4.0,74,0.00,,,0.00,weatherlink.com 1.10,2013-02-23 04:55:00,